Weather History for Eau Claire, WI

Change the Weather History Date:

Friday, August 16, 2013

  Actual Average Record
Temperature  
Mean Temperature 68 °F 70 °F  
Max Temperature 83 °F 81 °F 103 °F (1988)
Min Temperature 52 °F 59 °F 43 °F (1976)
Degree Days  
Heating Degree Days 0 1  
Month to date heating degree days 12 11  
Since 1 June heating degree days 101 84  
Since 1 July heating degree days 38 22  
Cooling Degree Days 3 5  
Month to date cooling degree days 25 94  
Year to date cooling degree days 389 460  
Since 1 June cooling degree days 357 428  
Growing Degree Days 18 (Base 50)    
Moisture  
Dew Point 52 °F    
Average Humidity 67    
Maximum Humidity 100    
Minimum Humidity 33    
Precipitation  
Precipitation 0.00 in 0.15 in 1.18 in (2002)
Month to date precipitation 0.39 2.40  
Year to date precipitation 26.94 20.05  
Snow  
Snow 0.00 in 0.00 in 0.00 in ()
Month to date snowfall 0.0 0.0  
Since 1 June snowfall 0.0 0.0  
Since 1 July snowfall 0.0 0.0  
Snow Depth 0.00 in    
Sea Level Pressure  
Sea Level Pressure 30.16 in    
Wind  
Wind Speed 3 mph (SW)    
Max Wind Speed 10 mph    
Max Gust Speed 15 mph    
Visibility 10 miles    
Events      
T = Trace of Precipitation, MM = Missing Value Source: NWS Daily Summary

Daily Weather History Graph

Daily Weather History Graph

Search for Another Location

Airport:

Trip Planner

Search our weather history database for the weather conditions in past years. The results will help you decide how hot, cold, wet, or windy it might be!

Date:

Astronomy

Aug. 16, 2013 Rise Set
Actual Time 6:09 AM CDT 8:09 PM CDT
Civil Twilight 5:37 AM CDT 8:41 PM CDT
Nautical Twilight 4:58 AM CDT 9:20 PM CDT
Astronomical Twilight 4:15 AM CDT 10:03 PM CDT
Moon 4:34 PM CDT (8/16) 1:07 AM CDT (8/16)
Length of Visible Light 15h 03m
Length of Day
14h 00m
Waxing Gibbous, 75% of the Moon is Illuminated
Aug 16
Waxing Gibbous
Aug 20
Full
Aug 28
Last Quarter
Sep 5
New
Sep 12
First Quarter

Hourly Weather History & Observations

Time (CDT) Temp. Dew Point Humidity Pressure Visibility Wind Dir Wind Speed Gust Speed Precip Events Conditions
12:56 AM 61.0 °F 52.0 °F 72% 30.13 in 10.0 mi SW 3.5 mph - N/A   Overcast
1:56 AM 59.0 °F 53.1 °F 81% 30.13 in 10.0 mi SW 3.5 mph - N/A   Scattered Clouds
2:56 AM 57.9 °F 51.1 °F 78% 30.13 in 10.0 mi Calm Calm - N/A   Mostly Cloudy
3:56 AM 57.9 °F 53.1 °F 84% 30.13 in 10.0 mi Calm Calm - N/A   Scattered Clouds
4:56 AM 54.0 °F 53.1 °F 97% 30.14 in 2.5 mi Calm Calm - N/A   Clear
5:11 AM 53.6 °F 51.8 °F 94% 30.14 in 10.0 mi Calm Calm - N/A   Clear
5:56 AM 54.0 °F 52.0 °F 93% 30.15 in 10.0 mi Calm Calm - N/A   Clear
6:56 AM 55.0 °F 54.0 °F 96% 30.17 in 4.0 mi Calm Calm - N/A   Clear
7:56 AM 60.1 °F 54.0 °F 80% 30.18 in 10.0 mi SW 3.5 mph - N/A   Clear
8:56 AM 66.0 °F 55.0 °F 68% 30.18 in 10.0 mi WSW 3.5 mph - N/A   Clear
9:56 AM 72.0 °F 55.0 °F 55% 30.19 in 10.0 mi WNW 4.6 mph - N/A   Clear
10:56 AM 75.0 °F 54.0 °F 48% 30.18 in 10.0 mi Calm Calm - N/A   Clear
11:56 AM 78.1 °F 52.0 °F 40% 30.18 in 10.0 mi South 6.9 mph - N/A   Scattered Clouds
12:56 PM 80.1 °F 50.0 °F 35% 30.16 in 10.0 mi West 5.8 mph - N/A   Mostly Cloudy
1:56 PM 78.1 °F 48.9 °F 36% 30.16 in 10.0 mi NE 3.5 mph - N/A   Overcast
2:56 PM 82.9 °F 50.0 °F 32% 30.15 in 10.0 mi West 9.2 mph - N/A   Overcast
3:56 PM 81.0 °F 50.0 °F 34% 30.14 in 10.0 mi Calm Calm - N/A   Partly Cloudy
4:56 PM 81.0 °F 48.9 °F 33% 30.14 in 10.0 mi South 6.9 mph - N/A   Mostly Cloudy
5:56 PM 79.0 °F 50.0 °F 36% 30.15 in 10.0 mi SW 6.9 mph - N/A   Scattered Clouds
6:56 PM 79.0 °F 50.0 °F 36% 30.15 in 10.0 mi SW 9.2 mph - N/A   Clear
7:56 PM 73.9 °F 51.1 °F 45% 30.15 in 10.0 mi WSW 4.6 mph - N/A   Clear
8:56 PM 70.0 °F 53.1 °F 55% 30.16 in 10.0 mi North - - N/A   Clear
9:56 PM 66.0 °F 53.1 °F 63% 30.17 in 10.0 mi Calm Calm - N/A   Clear
10:56 PM 63.0 °F 54.0 °F 72% 30.17 in 10.0 mi Calm Calm - N/A   Clear
11:56 PM 57.9 °F 52.0 °F 81% 30.18 in 10.0 mi Calm Calm - N/A   Clear